Hourly Weather Barnukovka

Today, 2 October, Friday

Time Temperature Precipitation Wind Pressure Humidity
00:00 +12°C° 0 mm 2 mps 761 mmHg 55%
01:00 +12°C° 0 mm 2 mps 761 mmHg 57%
02:00 +12°C° 0 mm 2 mps 761 mmHg 59%
03:00 +10°C° 0 mm 2 mps 762 mmHg 61%
04:00 +10°C° 0 mm 2 mps 762 mmHg 63%
05:00 +10°C° 0 mm 2 mps 762 mmHg 66%
06:00 +10°C° 0 mm 2 mps 762 mmHg 68%
07:00 +13°C° 0 mm 2 mps 762 mmHg 63%
08:00 +14°C° 0 mm 3 mps 762 mmHg 57%
09:00 +17°C° 0 mm 3 mps 762 mmHg 52%
10:00 +18°C° 0 mm 3 mps 762 mmHg 49%
11:00 +19°C° 0 mm 4 mps 762 mmHg 46%
12:00 +21°C° 0 mm 4 mps 761 mmHg 42%
13:00 +21°C° 0 mm 4 mps 761 mmHg 42%
14:00 +21°C° 0 mm 4 mps 761 mmHg 41%
15:00 +21°C° 0 mm 4 mps 761 mmHg 40%
16:00 +19°C° 0 mm 3 mps 761 mmHg 46%
17:00 +17°C° 0 mm 3 mps 761 mmHg 52%
18:00 +16°C° 0 mm 2 mps 761 mmHg 57%
19:00 +15°C° 0 mm 2 mps 761 mmHg 60%
20:00 +14°C° 0 mm 2 mps 761 mmHg 62%
21:00 +14°C° 0 mm 2 mps 762 mmHg 64%
22:00 +13°C° 0 mm 1 mps 761 mmHg 66%
23:00 +13°C° 0 mm 1 mps 761 mmHg 67%

Tomorrow, 3 October, Saturday

Time Temperature Precipitation Wind Pressure Humidity
00:00 +12°C° 0 mm 1 mps 761 mmHg 68%
01:00 +12°C° 0 mm 1 mps 762 mmHg 69%
02:00 +12°C° 0 mm 1 mps 762 mmHg 70%
03:00 +11°C° 0 mm 1 mps 762 mmHg 70%
04:00 +11°C° 0 mm 1 mps 762 mmHg 72%
05:00 +11°C° 0 mm 1 mps 762 mmHg 73%
06:00 +10°C° 0 mm 1 mps 762 mmHg 74%
07:00 +13°C° 0 mm 1 mps 762 mmHg 67%
08:00 +15°C° 0 mm 1 mps 762 mmHg 60%
09:00 +18°C° 0 mm 1 mps 762 mmHg 53%
10:00 +19°C° 0 mm 1 mps 762 mmHg 50%
11:00 +20°C° 0 mm 1 mps 762 mmHg 46%
12:00 +20°C° 0 mm 2 mps 762 mmHg 43%
13:00 +21°C° 0 mm 1 mps 762 mmHg 43%
14:00 +22°C° 0 mm 1 mps 762 mmHg 42%
15:00 +22°C° 0 mm 1 mps 761 mmHg 41%
16:00 +20°C° 0 mm 1 mps 761 mmHg 47%
17:00 +19°C° 0 mm 1 mps 761 mmHg 53%
18:00 +16°C° 0 mm 1 mps 761 mmHg 59%
19:00 +15°C° 0 mm 1 mps 761 mmHg 62%
20:00 +15°C° 0 mm 1 mps 761 mmHg 65%
21:00 +14°C° 0 mm 1 mps 762 mmHg 68%
22:00 +14°C° 0 mm 1 mps 762 mmHg 70%
23:00 +13°C° 0 mm 1 mps 762 mmHg 73%

Day after tomorrow, 4 October, Sunday

Time Temperature Precipitation Wind Pressure Humidity
00:00 +13°C° 0 mm 1 mps 762 mmHg 75%
01:00 +12°C° 0 mm 1 mps 762 mmHg 77%
02:00 +12°C° 0 mm 1 mps 762 mmHg 78%
03:00 +12°C° 0 mm 1 mps 762 mmHg 79%
04:00 +10°C° 0 mm 2 mps 762 mmHg 81%
05:00 +10°C° 0 mm 2 mps 762 mmHg 83%
06:00 +10°C° 0 mm 2 mps 762 mmHg 85%
07:00 +12°C° 0 mm 2 mps 762 mmHg 78%
08:00 +14°C° 0 mm 2 mps 763 mmHg 71%
09:00 +14°C° 0 mm 3 mps 763 mmHg 64%
10:00 +16°C° 0 mm 3 mps 763 mmHg 59%
11:00 +17°C° 0 mm 3 mps 763 mmHg 54%
12:00 +18°C° 0 mm 3 mps 762 mmHg 48%
13:00 +18°C° 0 mm 3 mps 762 mmHg 48%
14:00 +18°C° 0 mm 3 mps 762 mmHg 47%
15:00 +18°C° 0 mm 3 mps 762 mmHg 46%
16:00 +16°C° 0 mm 3 mps 763 mmHg 53%
17:00 +14°C° 0 mm 3 mps 763 mmHg 60%
18:00 +12°C° 0 mm 3 mps 763 mmHg 67%
19:00 +11°C° 0 mm 3 mps 763 mmHg 69%
20:00 +10°C° 0 mm 3 mps 763 mmHg 72%
21:00 +9°C° 0 mm 3 mps 764 mmHg 75%
22:00 +9°C° 0 mm 3 mps 764 mmHg 74%
23:00 +8°C° 0 mm 3 mps 764 mmHg 73%

5 October, Monday

Time Temperature Precipitation Wind Pressure Humidity
00:00 +7°C° 0 mm 3 mps 764 mmHg 72%
01:00 +7°C° 0 mm 3 mps 764 mmHg 72%
02:00 +6°C° 0 mm 2 mps 764 mmHg 71%
03:00 +6°C° 0 mm 2 mps 764 mmHg 71%
04:00 +5°C° 0 mm 2 mps 765 mmHg 70%
05:00 +5°C° 0 mm 2 mps 765 mmHg 70%
06:00 +4°C° 0 mm 2 mps 765 mmHg 69%
07:00 +6°C° 0 mm 2 mps 765 mmHg 64%
08:00 +8°C° 0 mm 3 mps 765 mmHg 59%
09:00 +9°C° 0 mm 3 mps 765 mmHg 53%
10:00 +10°C° 0 mm 3 mps 765 mmHg 48%
11:00 +12°C° 0 mm 3 mps 765 mmHg 43%
12:00 +13°C° 0 mm 3 mps 765 mmHg 37%
13:00 +14°C° 0 mm 2 mps 765 mmHg 36%
14:00 +15°C° 0 mm 2 mps 764 mmHg 34%
15:00 +15°C° 0 mm 2 mps 764 mmHg 32%
16:00 +13°C° 0 mm 2 mps 764 mmHg 37%
17:00 +10°C° 0 mm 2 mps 764 mmHg 41%
18:00 +8°C° 0 mm 2 mps 764 mmHg 46%
19:00 +9°C° 0 mm 1 mps 764 mmHg 48%
20:00 +8°C° 0 mm 1 mps 764 mmHg 49%
21:00 +7°C° 0 mm 1 mps 764 mmHg 51%
22:00 +6°C° 0 mm 0 mps 764 mmHg 51%
23:00 +6°C° 0 mm 0 mps 764 mmHg 52%

6 October, Tuesday

Time Temperature Precipitation Wind Pressure Humidity
00:00 +5°C° 0 mm 0 mps 764 mmHg 52%
01:00 +5°C° 0 mm 0 mps 764 mmHg 52%
02:00 +5°C° 0 mm 0 mps 764 mmHg 51%
03:00 +5°C° 0 mm 0 mps 764 mmHg 51%
04:00 +5°C° 0 mm 0 mps 764 mmHg 51%
05:00 +5°C° 0 mm 0 mps 764 mmHg 50%
06:00 +6°C° 0 mm 0 mps 764 mmHg 50%
07:00 +8°C° 0 mm 1 mps 763 mmHg 47%
08:00 +9°C° 0 mm 1 mps 763 mmHg 43%
09:00 +11°C° 0 mm 1 mps 763 mmHg 39%
10:00 +12°C° 0 mm 1 mps 763 mmHg 37%
11:00 +14°C° 0 mm 2 mps 763 mmHg 35%
12:00 +15°C° 0 mm 2 mps 763 mmHg 33%
13:00 +15°C° 0 mm 2 mps 762 mmHg 34%
14:00 +16°C° 0 mm 2 mps 762 mmHg 34%
15:00 +16°C° 0 mm 2 mps 761 mmHg 34%
16:00 +15°C° 0 mm 2 mps 761 mmHg 36%
17:00 +14°C° 0 mm 2 mps 761 mmHg 39%
18:00 +12°C° 0 mm 2 mps 761 mmHg 41%
19:00 +12°C° 0 mm 2 mps 761 mmHg 42%
20:00 +10°C° 0 mm 2 mps 760 mmHg 43%
21:00 +9°C° 0 mm 2 mps 760 mmHg 45%
22:00 +9°C° 0 mm 2 mps 760 mmHg 46%
23:00 +10°C° 0 mm 1 mps 760 mmHg 48%

7 October, Wednesday

Time Temperature Precipitation Wind Pressure Humidity
00:00 +9°C° 0 mm 1 mps 760 mmHg 49%
01:00 +10°C° 0 mm 1 mps 760 mmHg 48%
02:00 +11°C° 0 mm 1 mps 760 mmHg 47%
03:00 +11°C° 0 mm 1 mps 760 mmHg 46%
04:00 +11°C° 0.1 mm 1 mps 760 mmHg 48%
05:00 +11°C° 0.1 mm 1 mps 760 mmHg 51%
06:00 +11°C° 0.1 mm 1 mps 760 mmHg 53%
07:00 +12°C° 0 mm 2 mps 759 mmHg 50%
08:00 +12°C° 0 mm 3 mps 759 mmHg 46%
09:00 +14°C° 0 mm 3 mps 759 mmHg 42%
10:00 +15°C° 0 mm 4 mps 759 mmHg 40%
11:00 +17°C° 0 mm 4 mps 759 mmHg 37%
12:00 +19°C° 0 mm 5 mps 759 mmHg 35%
13:00 +19°C° 0 mm 4 mps 759 mmHg 34%
14:00 +20°C° 0 mm 4 mps 758 mmHg 34%
15:00 +20°C° 0 mm 4 mps 758 mmHg 34%
16:00 +18°C° 0 mm 3 mps 758 mmHg 39%
17:00 +17°C° 0 mm 2 mps 758 mmHg 44%
18:00 +15°C° 0 mm 2 mps 758 mmHg 48%
19:00 +14°C° 0 mm 2 mps 758 mmHg 52%
20:00 +13°C° 0 mm 1 mps 759 mmHg 56%
21:00 +12°C° 0 mm 1 mps 759 mmHg 60%
22:00 +12°C° 0 mm 1 mps 759 mmHg 64%
23:00 +11°C° 0 mm 1 mps 759 mmHg 67%
Show more